GW4497 Weather Reports


time (UTC)temp
C
wind
direction
speed
KPH
gust
KPH
rain 1hr
cm
rain 24hr
cm
rain mn
cm
humidity
%
barometer
mb
20260506185216 16 158 6.4 16.1 0.00 0.00 0.00 77 1012.5
20260506184503 16 163 8.0 16.1 0.00 0.00 0.00 76 1012.2
20260506184216 16 155 8.0 16.1 0.00 0.00 0.00 78 1012.3
20260506183503 16 153 8.0 14.5 0.00 0.00 0.00 77 1012.3
20260506183003 16 152 9.7 24.1 0.00 0.00 0.00 77 1012.3
20260506182503 16 144 11.3 24.1 0.00 0.00 0.00 76 1012.0
20260506182003 16 158 9.7 19.3 0.00 0.00 0.00 76 1011.9
20260506181503 16 161 9.7 20.9 0.00 0.00 0.00 76 1011.9
20260506181003 16 153 11.3 20.9 0.00 0.00 0.00 74 1011.7
20260506180503 16 157 9.7 19.3 0.00 0.00 0.00 73 1011.8
20260506180004 16 153 9.7 25.7 0.00 0.00 0.00 73 1011.9
20260506175717 16 150 9.7 25.7 0.00 0.00 0.00 72 1011.9
20260506175003 16 153 12.9 24.1 0.00 0.00 0.00 75 1011.9
20260506174503 16 157 11.3 24.1 0.00 0.00 0.00 73 1011.6
20260506174003 16 146 11.3 20.9 0.00 0.00 0.00 74 1011.9
20260506173503 16 140 9.7 20.9 0.00 0.00 0.00 73 1011.7
20260506173003 17 153 9.7 24.1 0.00 0.00 0.00 73 1011.6
20260506172503 16 146 14.5 24.1 0.00 0.00 0.00 73 1011.7
20260506172003 16 149 14.5 22.5 0.00 0.00 0.00 73 1011.5
20260506171503 17 167 11.3 27.4 0.00 0.00 0.00 71 1011.5
20260506171003 17 204 9.7 27.4 0.00 0.00 0.00 70 1011.6
20260506170503 17 212 8.0 17.7 0.00 0.00 0.00 68 1011.5
20260506170003 17 207 8.0 17.7 0.00 0.00 0.00 65 1011.3
20260506165503 17 168 8.0 22.5 0.00 0.00 0.00 61 1011.4
20260506165003 17 136 9.7 22.5 0.00 0.00 0.00 60 1011.5
20260506164717 17 151 11.3 22.5 0.00 0.00 0.00 62 1011.5
20260506164010 17 197 11.3 20.9 0.00 0.00 0.00 59 1011.3
20260506162507 17 135 16.1 29.0 0.00 0.00 0.00 60 1011.3
20260506162230 17 143 14.5 27.4 0.00 0.00 0.00 58 1011.4
20260506161011 17 143 9.7 25.7 0.00 0.00 0.00 58 1011.4
20260506160018 17 117 11.3 22.5 0.00 0.00 0.00 60 1011.2
20260506155507 17 117 11.3 22.5 0.00 0.00 0.00 59 1011.3
20260506155014 17 137 14.5 25.7 0.00 0.00 0.00 58 1011.2
20260506154003 17 133 16.1 32.2 0.00 0.00 0.00 56 1011.4
20260506153503 17 143 14.5 30.6 0.00 0.00 0.00 55 1011.2
20260506153003 17 143 14.5 33.8 0.00 0.00 0.00 55 1011.0
20260506152718 17 141 14.5 33.8 0.00 0.00 0.00 54 1011.3
20260506152003 17 155 11.3 25.7 0.00 0.00 0.00 54 1011.5
20260506151503 17 161 11.3 25.7 0.00 0.00 0.00 56 1011.4
20260506151003 17 180 11.3 25.7 0.00 0.00 0.00 56 1011.4
20260506150503 17 198 9.7 22.5 0.00 0.00 0.00 54 1011.3
20260506150003 17 155 11.3 30.6 0.00 0.00 0.00 55 1011.5
20260506145503 17 154 12.9 30.6 0.00 0.00 0.00 55 1011.4
20260506145003 17 184 11.3 29.0 0.00 0.00 0.00 54 1011.3
20260506144503 17 153 14.5 29.0 0.00 0.00 0.00 57 1011.6
20260506144003 17 141 17.7 29.0 0.00 0.00 0.00 58 1011.5
20260506143503 17 156 14.5 27.4 0.00 0.00 0.00 57 1011.6
20260506143003 17 176 14.5 27.4 0.00 0.00 0.00 56 1011.2
20260506142718 17 179 12.9 27.4 0.00 0.00 0.00 56 1011.7
20260506142217 17 177 12.9 27.4 0.00 0.00 0.00 56 1011.6
20260506141503 17 152 16.1 29.0 0.00 0.00 0.00 56 1011.6
20260506141003 17 158 14.5 29.0 0.00 0.00 0.00 56 1011.5
20260506140503 17 168 11.3 25.7 0.00 0.00 0.00 56 1011.7
20260506140003 17 147 12.9 32.2 0.00 0.00 0.00 55 1011.8
20260506135503 17 131 14.5 35.4 0.00 0.00 0.00 56 1011.8
20260506135003 17 139 12.9 35.4 0.00 0.00 0.00 57 1011.6
20260506134503 17 132 12.9 25.7 0.00 0.00 0.00 57 1011.8
20260506134003 17 127 14.5 33.8 0.00 0.00 0.00 58 1011.8
20260506133503 17 139 12.9 33.8 0.00 0.00 0.00 57 1011.9
20260506133216 17 133 12.9 24.1 0.00 0.00 0.00 58 1011.8
20260506132503 17 132 14.5 29.0 0.00 0.00 0.00 57 1012.0
20260506132003 17 150 12.9 30.6 0.00 0.00 0.00 57 1012.0
20260506131503 18 180 9.7 30.6 0.00 0.00 0.00 55 1012.1
20260506131003 17 170 9.7 32.2 0.00 0.00 0.00 55 1012.2
20260506130503 17 139 12.9 35.4 0.00 0.00 0.00 55 1012.2
20260506130003 17 140 14.5 35.4 0.00 0.00 0.00 55 1012.0
20260506125503 18 156 11.3 25.7 0.00 0.00 0.00 53 1012.2
20260506125003 18 173 11.3 22.5 0.00 0.00 0.00 54 1012.2
20260506124503 17 169 12.9 24.1 0.00 0.00 0.00 56 1012.2
20260506124003 17 148 12.9 29.0 0.00 0.00 0.00 55 1012.3
20260506123503 17 147 14.5 29.0 0.00 0.00 0.00 57 1012.1
20260506123003 17 138 14.5 27.4 0.00 0.00 0.00 55 1012.2
20260506122503 17 156 14.5 27.4 0.00 0.00 0.00 55 1012.1
20260506122003 17 175 14.5 24.1 0.00 0.00 0.00 54 1012.2
20260506121503 18 168 12.9 24.1 0.00 0.00 0.00 53 1012.2
20260506121003 18 175 11.3 22.5 0.00 0.00 0.00 52 1012.1
20260506120503 17 177 11.3 27.4 0.00 0.00 0.00 52 1012.3
20260506120003 18 158 11.3 27.4 0.00 0.00 0.00 52 1012.3
20260506115503 18 143 9.7 25.7 0.00 0.00 0.00 53 1012.1
20260506115003 17 154 9.7 24.1 0.00 0.00 0.00 52 1012.1
20260506114503 17 164 12.9 24.1 0.00 0.00 0.00 53 1012.2
20260506114003 17 153 11.3 22.5 0.00 0.00 0.00 53 1012.2
20260506113503 17 152 9.7 22.5 0.00 0.00 0.00 52 1012.2
20260506113003 18 172 8.0 20.9 0.00 0.00 0.00 52 1012.0
20260506112503 17 171 9.7 25.7 0.00 0.00 0.00 53 1012.1
20260506112218 17 160 11.3 25.7 0.00 0.00 0.00 53 1012.6
20260506111503 18 167 14.5 25.7 0.00 0.00 0.00 54 1012.3
20260506111218 17 163 12.9 24.1 0.00 0.00 0.00 54 1012.6
20260506110503 17 152 12.9 25.7 0.00 0.00 0.00 53 1012.6
20260506110003 17 156 14.5 25.7 0.00 0.00 0.00 53 1012.5
20260506105503 17 159 12.9 24.1 0.00 0.00 0.00 54 1012.6
20260506105003 17 152 11.3 25.7 0.00 0.00 0.00 54 1012.2
20260506104716 17 147 12.9 29.0 0.00 0.00 0.00 54 1012.5
20260506104003 17 144 11.3 29.0 0.00 0.00 0.00 55 1012.6
20260506103503 17 141 12.9 27.4 0.00 0.00 0.00 56 1012.6
20260506103003 17 154 11.3 24.1 0.00 0.00 0.00 56 1012.6
20260506102718 17 162 11.3 24.1 0.00 0.00 0.00 56 1012.7
20260506102217 17 162 11.3 22.5 0.00 0.00 0.00 58 1012.3
20260506101503 17 147 12.9 27.4 0.00 0.00 0.00 60 1012.7
20260506101003 17 164 9.7 24.1 0.00 0.00 0.00 61 1012.5
20260506100503 17 167 8.0 20.9 0.00 0.00 0.00 61 1012.7
20260506100217 17 178 8.0 17.7 0.00 0.00 0.00 60 1012.7
20260506095503 17 202 8.0 17.7 0.00 0.00 0.00 61 1012.6
20260506095003 16 213 6.4 17.7 0.00 0.00 0.00 61 1013.0
20260506094503 16 250 8.0 17.7 0.00 0.00 0.00 61 1012.8
20260506094003 17 248 8.0 17.7 0.00 0.00 0.00 63 1012.8
20260506093503 17 230 8.0 17.7 0.00 0.00 0.00 63 1012.8
20260506093003 17 208 6.4 17.7 0.00 0.00 0.00 64 1012.8
20260506092718 16 180 6.4 17.7 0.00 0.00 0.00 65 1012.8
20260506092003 16 173 8.0 20.9 0.00 0.03 0.00 66 1012.9
20260506091503 16 177 8.0 20.9 0.00 0.03 0.00 64 1012.9
20260506091003 16 169 9.7 19.3 0.00 0.03 0.00 61 1012.5
20260506090718 16 159 9.7 19.3 0.00 0.03 0.00 62 1012.7
20260506090003 16 175 9.7 17.7 0.00 0.03 0.00 65 1012.8
20260506085503 16 209 6.4 17.7 0.00 0.03 0.00 62 1012.6
20260506085003 17 146 4.8 20.9 0.00 0.03 0.00 58 1012.6
20260506084718 16 132 6.4 20.9 0.00 0.03 0.00 58 1012.5
20260506084003 15 147 11.3 22.5 0.00 0.03 0.00 64 1012.6
20260506083503 16 156 9.7 22.5 0.00 0.03 0.00 67 1012.5
20260506083003 16 174 6.4 12.9 0.00 0.03 0.00 68 1012.6
20260506082503 16 207 4.8 12.9 0.00 0.03 0.00 68 1012.6
20260506082003 15 187 6.4 12.9 0.00 0.03 0.00 69 1012.3
20260506081503 16 154 4.8 12.9 0.00 0.03 0.00 68 1012.6
20260506081003 16 136 4.8 11.3 0.00 0.03 0.00 66 1012.6
20260506080503 15 133 4.8 11.3 0.00 0.03 0.00 66 1012.5
20260506080216 16 161 4.8 9.7 0.00 0.03 0.00 66 1012.6
20260506073503 14 175 4.8 9.7 0.00 0.03 0.00 67 1012.5
20260506073003 14 163 3.2 6.4 0.00 0.03 0.00 67 1012.5
20260506072503 15 26 3.2 8.0 0.00 0.03 0.00 66 1012.3
20260506072003 13 351 4.8 9.7 0.00 0.03 0.00 68 1012.2
20260506071717 13 340 4.8 9.7 0.00 0.03 0.00 68 1012.3
20260506071003 13 351 4.8 11.3 0.00 0.03 0.00 69 1012.5
20260506070503 13 356 3.2 8.0 0.00 0.03 0.00 70 1012.6
20260506070218 13 347 3.2 9.7 0.00 0.03 0.00 71 1012.3
20260506062503 11 88 1.6 6.4 0.00 0.03 0.00 82 1012.2
20260506062218 11 340 1.6 6.4 0.00 0.03 0.00 82 1012.1
20260506061503 10 29 3.2 12.9 0.00 0.03 0.00 84 1012.1
20260506061003 10 126 3.2 12.9 0.00 0.03 0.00 86 1012.3
20260506060503 10 132 3.2 6.4 0.00 0.03 0.00 87 1012.1
20260506060218 10 160 1.6 4.8 0.00 0.03 0.00 87 1011.9
20260506051217 8 63 1.6 4.8 0.00 0.03 0.00 90 1011.8
20260506050503 8 307 1.6 4.8 0.00 0.03 0.00 90 1011.8
20260506045003 7 152 1.6 6.4 0.00 0.03 0.00 90 1011.7
20260506044503 7 151 1.6 8.0 0.00 0.03 0.00 90 1011.4
20260506044003 7 152 3.2 8.0 0.00 0.03 0.00 90 1011.7
20260506043503 7 138 1.6 4.8 0.00 0.03 0.00 90 1011.6
20260506043003 7 98 1.6 3.2 0.00 0.03 0.00 90 1011.5
20260506042503 7 101 1.6 6.4 0.00 0.03 0.00 90 1011.4
20260506042217 7 110 1.6 6.4 0.00 0.03 0.00 90 1011.4
20260506041503 7 128 1.6 6.4 0.00 0.05 0.00 90 1011.3
20260506041003 7 148 1.6 4.8 0.00 0.05 0.00 90 1011.5
20260506040503 7 281 1.6 4.8 0.00 0.05 0.00 90 1011.3
20260506040217 7 250 1.6 4.8 0.00 0.05 0.00 90 1011.3
20260506035503 7 135 1.6 4.8 0.00 0.05 0.00 90 1011.3
20260506035003 7 53 0.0 3.2 0.00 0.05 0.00 90 1011.2
20260506034718 7 319 0.0 3.2 0.00 0.05 0.00 90 1011.5
20260506034217 7 251 1.6 3.2 0.00 0.05 0.00 90 1011.3
20260506033503 7 103 3.2 8.0 0.00 0.05 0.00 90 1011.2
20260506033003 7 114 1.6 8.0 0.00 0.05 0.00 90 1011.5
20260506032503 7 196 1.6 4.8 0.00 0.05 0.00 90 1011.4
20260506032217 7 197 1.6 4.8 0.00 0.05 0.00 90 1011.4
20260506031503 7 211 1.6 4.8 0.00 0.05 0.00 90 1011.4
20260506031003 7 211 1.6 4.8 0.00 0.05 0.00 90 1011.5
20260506030503 7 151 1.6 4.8 0.00 0.05 0.00 90 1011.5
20260506030003 7 149 1.6 4.8 0.00 0.05 0.00 90 1011.5
20260506025503 7 249 1.6 3.2 0.00 0.05 0.00 89 1011.4
20260506025003 7 156 1.6 4.8 0.00 0.05 0.00 90 1011.6
20260506024503 7 132 1.6 4.8 0.00 0.05 0.00 90 1011.4
20260506024003 7 149 1.6 4.8 0.00 0.05 0.00 90 1011.3
20260506023503 7 218 1.6 4.8 0.00 0.05 0.00 90 1011.5
20260506023003 7 153 1.6 4.8 0.00 0.05 0.00 89 1011.4
20260506022503 7 356 1.6 3.2 0.00 0.05 0.00 90 1011.3
20260506022003 7 6 1.6 4.8 0.00 0.05 0.00 89 1011.2
20260506021503 7 128 1.6 4.8 0.00 0.05 0.00 89 1011.3
20260506021003 8 134 1.6 4.8 0.00 0.05 0.00 89 1011.2
20260506020504 7 157 1.6 4.8 0.00 0.05 0.00 89 1011.3
20260506020003 8 12 3.2 6.4 0.00 0.05 0.00 89 1011.3
20260506015503 8 307 1.6 6.4 0.00 0.05 0.00 89 1011.2
20260506015003 8 259 1.6 4.8 0.00 0.05 0.00 89 1011.3
20260506014503 8 133 3.2 6.4 0.00 0.05 0.00 89 1011.3
20260506014003 8 186 3.2 6.4 0.00 0.05 0.00 89 1011.2
20260506013717 8 191 1.6 6.4 0.00 0.05 0.00 89 1011.2
20260506013003 8 213 1.6 4.8 0.00 0.05 0.00 89 1011.1
20260506012503 8 16 1.6 4.8 0.00 0.05 0.00 89 1011.0
20260506012218 8 333 1.6 4.8 0.00 0.05 0.00 89 1011.2
20260506011503 8 109 3.2 6.4 0.00 0.05 0.00 88 1011.2
20260506011003 8 147 3.2 6.4 0.00 0.05 0.00 88 1011.0
20260506010717 8 282 1.6 6.4 0.00 0.05 0.00 88 1011.2
20260506010003 8 24 1.6 3.2 0.00 0.05 0.00 88 1011.2
20260506005503 9 261 1.6 3.2 0.00 0.05 0.00 88 1011.2
20260506005003 9 138 1.6 3.2 0.00 0.05 0.00 88 1011.3
20260506004504 9 56 1.6 3.2 0.00 0.05 0.00 88 1011.2
20260506004003 9 245 1.6 4.8 0.00 0.05 0.00 88 1011.3
20260506003503 9 136 1.6 6.4 0.00 0.05 0.00 87 1011.2
20260506003003 10 125 3.2 6.4 0.00 0.05 0.00 87 1011.2
20260506002503 10 56 3.2 6.4 0.00 0.05 0.00 87 1011.2
20260506002217 10 328 3.2 6.4 0.00 0.05 0.00 87 1011.2
20260506001503 10 355 1.6 6.4 0.00 0.05 0.00 87 1011.3
20260506001003 10 82 1.6 6.4 0.00 0.05 0.00 86 1011.0
20260506000503 10 164 1.6 4.8 0.00 0.05 0.00 86 1011.5
20260506000003 10 6 1.6 6.4 0.00 0.05 0.00 86 1011.4
20260505235503 10 70 3.2 6.4 0.00 0.05 0.00 86 1011.3
20260505235003 10 123 3.2 6.4 0.00 0.05 0.00 85 1011.5
20260505234503 11 140 1.6 6.4 0.00 0.05 0.00 85 1011.6
20260505234003 11 140 1.6 6.4 0.00 0.05 0.00 84 1011.3
20260505233503 11 317 1.6 4.8 0.00 0.05 0.00 84 1011.4
20260505233003 11 350 1.6 4.8 0.00 0.05 0.00 83 1011.2
20260505232718 11 47 3.2 4.8 0.00 0.05 0.00 83 1011.2
20260505232003 11 95 3.2 6.4 0.00 0.05 0.00 82 1011.3
20260505231503 11 54 1.6 4.8 0.00 0.05 0.00 82 1011.2
20260505231217 11 12 1.6 6.4 0.00 0.05 0.00 82 1011.6
20260505230503 11 17 3.2 6.4 0.00 0.05 0.00 82 1011.5
20260505230003 11 60 4.8 9.7 0.00 0.05 0.00 80 1011.2
20260505225718 11 64 4.8 9.7 0.00 0.05 0.00 80 1011.4
20260505225003 11 130 3.2 8.0 0.00 0.05 0.00 81 1011.4
20260505224718 12 160 3.2 6.4 0.00 0.05 0.00 81 1011.7
20260505224003 12 143 1.6 4.8 0.00 0.05 0.00 81 1011.5
20260505223503 12 167 1.6 4.8 0.00 0.05 0.00 80 1011.8
20260505223003 12 11 1.6 4.8 0.00 0.05 0.00 78 1011.8
20260505222718 12 18 1.6 6.4 0.00 0.05 0.00 78 1011.5
20260505222003 12 57 6.4 12.9 0.00 0.05 0.00 78 1011.7
20260505221503 11 70 8.0 12.9 0.00 0.05 0.00 79 1012.0
20260505221217 11 73 6.4 12.9 0.00 0.05 0.00 79 1012.0
20260505220503 12 113 4.8 9.7 0.00 0.05 0.00 79 1012.1
20260505220217 12 124 3.2 8.0 0.00 0.05 0.00 79 1012.0
20260505215503 12 13 1.6 6.4 0.00 0.05 0.05 78 1011.9
20260505215003 12 64 3.2 6.4 0.00 0.05 0.05 78 1012.0
20260505214503 12 108 3.2 6.4 0.00 0.05 0.05 79 1011.9
20260505214003 11 147 3.2 6.4 0.00 0.05 0.05 79 1012.1
20260505213503 12 154 3.2 6.4 0.00 0.05 0.05 79 1011.8
20260505213003 12 156 1.6 6.4 0.00 0.05 0.05 78 1011.9
20260505212503 12 40 1.6 6.4 0.00 0.05 0.05 78 1011.8
20260505212003 12 43 3.2 8.0 0.00 0.05 0.05 76 1011.7
20260505211503 12 57 3.2 8.0 0.00 0.05 0.05 75 1011.8
20260505211003 12 58 3.2 8.0 0.00 0.05 0.05 74 1011.7
20260505210503 12 52 4.8 9.7 0.00 0.05 0.05 75 1011.7
20260505210003 12 57 4.8 9.7 0.00 0.05 0.05 77 1011.7
20260505205503 12 85 3.2 9.7 0.00 0.05 0.05 77 1011.6
20260505205003 12 122 3.2 6.4 0.00 0.05 0.05 77 1011.6
20260505204503 12 119 3.2 6.4 0.00 0.05 0.05 77 1011.6
20260505204003 12 339 3.2 6.4 0.00 0.05 0.05 76 1011.4
20260505203503 12 10 3.2 6.4 0.00 0.05 0.05 74 1011.3
20260505203003 12 351 3.2 6.4 0.00 0.05 0.05 76 1011.2
20260505202503 12 314 3.2 6.4 0.00 0.05 0.05 74 1010.9
20260505202003 12 328 3.2 6.4 0.00 0.08 0.05 75 1010.9
20260505201503 13 9 3.2 6.4 0.00 0.10 0.05 73 1010.9
20260505201003 13 64 3.2 9.7 0.00 0.10 0.05 70 1010.7
20260505200503 13 26 4.8 9.7 0.00 0.10 0.05 68 1010.5
20260505200003 13 344 3.2 6.4 0.00 0.10 0.05 69 1010.6
20260505195717 14 326 3.2 6.4 0.00 0.10 0.05 69 1010.5
20260505195003 14 230 3.2 9.7 0.00 0.10 0.05 68 1010.5
20260505194717 14 213 3.2 9.7 0.00 0.10 0.05 68 1010.6
20260505194003 14 216 4.8 9.7 0.00 0.10 0.05 70 1010.5
20260505193717 14 242 4.8 9.7 0.00 0.10 0.05 71 1010.6
20260505193003 13 281 6.4 17.7 0.00 0.10 0.05 73 1010.5
20260505192503 13 293 11.3 22.5 0.00 0.10 0.05 74 1010.5
20260505192003 13 302 11.3 22.5 0.00 0.10 0.05 73 1010.7
20260505191503 13 303 9.7 24.1 0.00 0.10 0.05 75 1010.9
20260505191003 13 290 6.4 24.1 0.00 0.10 0.05 75 1010.6
20260505190503 14 292 3.2 9.7 0.00 0.10 0.05 73 1010.8
20260505190004 14 332 3.2 9.7 0.00 0.10 0.05 72 1010.5
20260505185503 14 349 4.8 9.7 0.00 0.10 0.05 72 1010.4